This is the latest recevied weather packets stored in our database for station/object W4FXD. If no packets are shown the sender has not sent any weather packets the latest 10 day(s).
| Time | Temp. | Humidity | Pressure | Rain* | Wind** | Luminosity | Snow |
|---|---|---|---|---|---|---|---|
| 1777648125 | 16.67° C | 55% | 1015.5 hPa | 0 mm | - | 782 W/m² | - |
| 1777647821 | 16.67° C | 54% | 1015.4 hPa | 0 mm | - | 824 W/m² | - |
| 1777647518 | 17.22° C | 55% | 1015.3 hPa | 0 mm | - | 818 W/m² | - |
| 1777647215 | 17.22° C | 57% | 1015.4 hPa | 0 mm | - | 802 W/m² | - |
| 1777646912 | 16.67° C | 57% | 1015.4 hPa | 0 mm | - | 747 W/m² | - |
| 1777646607 | 16.11° C | 57% | 1015.5 hPa | 0 mm | - | 706 W/m² | - |
| 1777646304 | 16.11° C | 56% | 1015.3 hPa | 0 mm | - | 769 W/m² | - |
| 1777646001 | 15.56° C | 58% | 1015.4 hPa | 0 mm | - | 731 W/m² | - |
| 1777645698 | 16.11° C | 59% | 1015.2 hPa | 0 mm | - | 726 W/m² | - |
| 1777645394 | 15.56° C | 61% | 1015.3 hPa | 0 mm | - | 688 W/m² | - |
| 1777645090 | 15° C | 65% | 1015.1 hPa | 0 mm | - | 598 W/m² | - |
| 1777644786 | 15° C | 65% | 1015.1 hPa | 0 mm | - | 624 W/m² | - |
| 1777644484 | 15° C | 63% | 1015.2 hPa | 0 mm | - | 630 W/m² | - |
| 1777644180 | 15° C | 64% | 1015 hPa | 0 mm | - | 584 W/m² | - |
| 1777643877 | 15.56° C | 62% | 1014.9 hPa | 0 mm | - | 475 W/m² | - |
| 1777643575 | 15° C | 62% | 1015 hPa | 0 mm | - | 433 W/m² | - |
| 1777643271 | 15° C | 62% | 1015 hPa | 0 mm | - | 438 W/m² | - |
| 1777642968 | 14.44° C | 63% | 1014.8 hPa | 0 mm | - | 423 W/m² | - |
| 1777642664 | 13.89° C | 67% | 1015.2 hPa | 0 mm | - | 394 W/m² | - |
| 1777642361 | 13.33° C | 67% | 1015.2 hPa | 0 mm | - | 381 W/m² | - |
| 1777642057 | 13.33° C | 69% | 1015.2 hPa | 0 mm | - | 367 W/m² | - |
| 1777641754 | 13.89° C | 69% | 1015.3 hPa | 0 mm | - | 346 W/m² | - |
| 1777641454 | 13.33° C | 69% | 1015.1 hPa | 0 mm | - | 324 W/m² | - |
| 1777641150 | 12.78° C | 73% | 1015.3 hPa | 0 mm | - | 310 W/m² | - |
| 1777640846 | 12.78° C | 72% | 1015 hPa | 0 mm | - | 288 W/m² | - |
* Rain latest hour (hover to see other rain measurements)
** Current wind speed in m/s (hover to see current wind gust speed)